FRS111N EDDG-EDDG

Flight info

Callsign FRS111N
Flight time 0h 13m
Altitude
Route
Aircraft TBM9

Departure

Time 2026-05-04 08:37
Airport Münster Osnabrück Airport (EDDG)

Arrival

Time 2026-05-04 08:50
Airport Münster Osnabrück Airport (EDDG)
Time Latitude Longitude Altitude Speed Heading
2026-05-04 08:33 52.13150 7.68722 163 ft 0 kts 341°
2026-05-04 08:35 52.13405 7.69040 160 ft 23 kts 66°
2026-05-04 08:35 52.13461 7.69297 162 ft 24 kts 71°
2026-05-04 08:35 52.13521 7.69585 162 ft 29 kts 70°
2026-05-04 08:35 52.13589 7.69912 160 ft 32 kts 70°
2026-05-04 08:37 52.11736 7.64937 1340 ft 160 kts 171°
2026-05-04 08:37 52.10618 7.65581 1279 ft 176 kts 134°
2026-05-04 08:37 52.10463 7.67444 1362 ft 177 kts 81°
2026-05-04 08:38 52.10830 7.69391 1297 ft 184 kts 72°
2026-05-04 08:38 52.11280 7.71365 1247 ft 188 kts 70°
2026-05-04 08:38 52.11787 7.73248 1193 ft 166 kts 65°
2026-05-04 08:40 52.13601 7.69108 170 ft 67 kts 248°
2026-05-04 08:40 52.13455 7.68477 163 ft 61 kts 250°
2026-05-04 08:40 52.13291 7.67636 418 ft 83 kts 249°
2026-05-04 08:41 52.13079 7.66723 897 ft 88 kts 246°
2026-05-04 08:41 52.12809 7.65664 1185 ft 113 kts 236°
2026-05-04 08:41 52.12026 7.65390 1326 ft 140 kts 167°
2026-05-04 08:41 52.10980 7.65904 1228 ft 168 kts 166°
2026-05-04 08:42 52.09901 7.66630 1375 ft 171 kts 148°
2026-05-04 08:42 52.09542 7.68389 1523 ft 180 kts 84°
2026-05-04 08:42 52.10140 7.70217 1467 ft 188 kts 50°
2026-05-04 08:42 52.10951 7.71854 1589 ft 187 kts 52°
2026-05-04 08:43 52.11744 7.73556 1539 ft 177 kts 55°
2026-05-04 08:43 52.12378 7.74965 1512 ft 139 kts 56°
2026-05-04 08:43 52.13072 7.75517 1456 ft 108 kts 341°
2026-05-04 08:43 52.13742 7.74914 1123 ft 112 kts 325°
2026-05-04 08:44 52.14357 7.74148 877 ft 113 kts 319°
2026-05-04 08:44 52.14544 7.73142 728 ft 97 kts 246°
2026-05-04 08:46 52.13150 7.66730 761 ft 92 kts 256°
2026-05-04 08:46 52.13007 7.65702 1197 ft 101 kts 251°
2026-05-04 08:46 52.12553 7.64801 1410 ft 129 kts 190°
2026-05-04 08:46 52.11800 7.65459 1891 ft 139 kts 131°
2026-05-04 08:47 52.11566 7.67021 1622 ft 155 kts 73°
2026-05-04 08:47 52.12095 7.68734 1229 ft 166 kts 60°
2026-05-04 08:47 52.12538 7.70288 1072 ft 143 kts 71°
2026-05-04 08:47 52.12912 7.71876 1042 ft 136 kts 69°
2026-05-04 08:48 52.13481 7.72800 929 ft 119 kts 358°
2026-05-04 08:48 52.14232 7.72443 718 ft 110 kts 314°
2026-05-04 08:48 52.14147 7.71420 544 ft 94 kts 243°
2026-05-04 08:48 52.13880 7.70456 315 ft 90 kts 247°
2026-05-04 08:49 52.13696 7.69570 172 ft 72 kts 249°
2026-05-04 08:50 52.13269 7.68317 164 ft 14 kts 163°
2026-05-04 08:50 52.13193 7.68310 164 ft 16 kts 252°
2026-05-04 08:51 52.13141 7.68278 164 ft 3 kts 206°
2026-05-04 08:51 52.13138 7.68247 163 ft 0 kts 261°